| time (UTC) | temp F | wind direction | speed MPH | gust MPH | rain 1hr in | rain 24hr in | rain mn in | humidity % | barometer mb |
| 20260904181021 | 0 | 0.0 | 0.0 | 0.00 | 0.00 | 0.00 | 1015.4 | ||
| 20260904180523 | 0 | 0.0 | 0.0 | 0.00 | 0.00 | 0.00 | 1015.4 | ||
| 20260904175519 | 0 | 0.0 | 0.0 | 0.00 | 0.00 | 0.00 | 1015.6 | ||
| 20260904175019 | 0 | 0.0 | 0.0 | 0.00 | 0.01 | 0.00 | 1015.7 | ||
| 20260904174020 | 0 | 0.0 | 0.0 | 0.00 | 0.01 | 0.00 | 1015.9 | ||
| 20260904173518 | 0 | 0.0 | 0.0 | 0.00 | 0.01 | 0.00 | 1015.8 | ||
| 20260904172518 | 0 | 0.0 | 0.0 | 0.00 | 0.01 | 0.00 | 1015.9 | ||
| 20260904171023 | 0 | 0.0 | 0.0 | 0.00 | 0.01 | 0.00 | 1016.1 | ||
| 20260904170519 | 0 | 0.0 | 0.0 | 0.00 | 0.01 | 0.00 | 1016.1 | ||
| 20260904165520 | 0 | 0.0 | 0.0 | 0.00 | 0.01 | 0.00 | 1016.2 | ||
| 20260904165021 | 0 | 0.0 | 0.0 | 0.00 | 0.01 | 0.00 | 1016.3 | ||
| 20260904164018 | 0 | 0.0 | 0.0 | 0.00 | 0.01 | 0.00 | 1016.5 | ||
| 20260904163519 | 0 | 0.0 | 0.0 | 0.00 | 0.01 | 0.00 | 1016.5 | ||
| 20260904162520 | 0 | 0.0 | 0.0 | 0.00 | 0.01 | 0.00 | 1016.7 | ||
| 20260904160524 | 0 | 0.0 | 0.0 | 0.00 | 0.01 | 0.00 | 1016.3 | ||
| 20260904155522 | 0 | 0.0 | 0.0 | 0.00 | 0.01 | 0.00 | 1016.2 | ||
| 20260904155019 | 84 | 0.0 | 0.0 | 0.00 | 0.01 | 0.00 | 1016.2 | ||
| 20260904154022 | 84 | 15 | 0.0 | 0.0 | 0.00 | 0.01 | 0.00 | 86 | 1016.2 |
| 20260904153520 | 84 | 15 | 0.0 | 0.0 | 0.00 | 0.01 | 0.00 | 86 | 1016.0 |
| 20260904153020 | 85 | 20 | 0.0 | 1.0 | 0.00 | 0.01 | 0.00 | 85 | 1016.0 |
| 20260904152523 | 85 | 76 | 0.0 | 1.0 | 0.00 | 0.01 | 0.00 | 87 | 1015.9 |
| 20260904152016 | 84 | 46 | 0.0 | 2.0 | 0.00 | 0.01 | 0.00 | 89 | 1016.0 |
| 20260904151528 | 83 | 29 | 0.0 | 0.0 | 0.00 | 0.01 | 0.00 | 1016.1 | |
| 20260904151022 | 0 | 0.0 | 0.0 | 0.00 | 0.01 | 0.00 | 1016.0 | ||
| 20260904150521 | 0 | 0.0 | 0.0 | 0.00 | 0.01 | 0.00 | 1016.0 | ||
| 20260904145520 | 0 | 0.0 | 0.0 | 0.00 | 0.01 | 0.00 | 1016.0 | ||
| 20260904145021 | 0 | 0.0 | 0.0 | 0.00 | 0.01 | 0.00 | 1016.0 | ||
| 20260904144022 | 0 | 0.0 | 0.0 | 0.00 | 0.01 | 0.00 | 1016.1 | ||
| 20260904143517 | 0 | 0.0 | 0.0 | 0.00 | 0.01 | 0.00 | 1016.1 | ||
| 20260904142520 | 0 | 0.0 | 0.0 | 0.00 | 0.01 | 0.00 | 1015.9 | ||
| 20260904142020 | 0 | 0.0 | 0.0 | 0.00 | 0.01 | 0.00 | 1015.8 | ||
| 20260904141505 | 0 | 0.0 | 0.0 | 0.00 | 0.01 | 0.00 | 1015.8 | ||
| 20260904141003 | 0 | 0.0 | 0.0 | 0.00 | 0.01 | 0.00 | 1015.8 | ||
| 20260904140503 | 0 | 0.0 | 0.0 | 0.00 | 0.01 | 0.00 | 1015.8 | ||
| 20260904140005 | 0 | 0.0 | 0.0 | 0.00 | 0.01 | 0.00 | 1015.8 | ||
| 20260904135504 | 76 | 0.0 | 0.0 | 0.00 | 0.01 | 0.00 | 94 | 1015.8 | |
| 20260904135004 | 76 | 0.0 | 2.0 | 0.00 | 0.01 | 0.00 | 94 | 1015.7 | |
| 20260904134506 | 76 | 360 | 0.0 | 2.0 | 0.00 | 0.01 | 0.00 | 94 | 1015.7 |
| 20260904134005 | 76 | 360 | 0.0 | 2.0 | 0.00 | 0.01 | 0.00 | 94 | 1015.7 |
| 20260904133505 | 76 | 227 | 0.0 | 0.0 | 0.00 | 0.01 | 0.00 | 94 | 1015.6 |
| 20260904133010 | 75 | 227 | 0.0 | 0.0 | 0.00 | 0.01 | 0.00 | 94 | 1015.6 |
| 20260904132508 | 75 | 227 | 0.0 | 0.0 | 0.00 | 0.01 | 0.00 | 94 | 1015.5 |
| 20260904132009 | 75 | 227 | 0.0 | 0.0 | 0.00 | 0.01 | 0.00 | 93 | 1015.5 |
| 20260904131507 | 75 | 227 | 0.0 | 0.0 | 0.00 | 0.01 | 0.00 | 94 | 1015.4 |
| 20260904131003 | 75 | 227 | 0.0 | 0.0 | 0.00 | 0.01 | 0.00 | 93 | 1015.5 |
| 20260904130506 | 74 | 226 | 0.0 | 0.0 | 0.00 | 0.01 | 0.00 | 94 | 1015.5 |
| 20260904130004 | 74 | 226 | 0.0 | 0.0 | 0.00 | 0.01 | 0.00 | 93 | 1015.4 |
| 20260904125504 | 74 | 226 | 0.0 | 0.0 | 0.00 | 0.01 | 0.00 | 93 | 1015.4 |
| 20260904125008 | 74 | 226 | 0.0 | 0.0 | 0.00 | 0.01 | 0.00 | 93 | 1015.4 |
| 20260904124503 | 74 | 226 | 0.0 | 0.0 | 0.00 | 0.01 | 0.00 | 93 | 1015.3 |
| 20260904124003 | 74 | 226 | 0.0 | 0.0 | 0.00 | 0.01 | 0.00 | 93 | 1015.1 |
| 20260904123506 | 74 | 226 | 0.0 | 0.0 | 0.00 | 0.01 | 0.00 | 93 | 1015.1 |
| 20260904123009 | 74 | 226 | 0.0 | 0.0 | 0.00 | 0.01 | 0.00 | 93 | 1015.2 |
| 20260904122508 | 74 | 226 | 0.0 | 0.0 | 0.00 | 0.01 | 0.00 | 93 | 1015.1 |
| 20260904122006 | 74 | 226 | 0.0 | 0.0 | 0.00 | 0.01 | 0.00 | 93 | 1015.1 |
| 20260904121508 | 74 | 226 | 0.0 | 0.0 | 0.00 | 0.01 | 0.00 | 93 | 1014.9 |
| 20260904121007 | 74 | 226 | 0.0 | 0.0 | 0.00 | 0.01 | 0.00 | 93 | 1014.9 |
| 20260904120507 | 74 | 226 | 0.0 | 0.0 | 0.00 | 0.01 | 0.00 | 93 | 1014.9 |
| 20260904120015 | 74 | 226 | 0.0 | 0.0 | 0.00 | 0.01 | 0.00 | 93 | 1014.7 |
| 20260904115506 | 74 | 226 | 0.0 | 0.0 | 0.00 | 0.01 | 0.00 | 93 | 1014.8 |
| 20260904115004 | 74 | 226 | 0.0 | 0.0 | 0.00 | 0.01 | 0.00 | 93 | 1014.8 |
| 20260904114511 | 74 | 226 | 0.0 | 0.0 | 0.00 | 0.01 | 0.00 | 93 | 1014.7 |
| 20260904114005 | 74 | 226 | 0.0 | 0.0 | 0.00 | 0.01 | 0.00 | 93 | 1014.6 |
| 20260904113508 | 74 | 226 | 0.0 | 0.0 | 0.00 | 0.01 | 0.00 | 93 | 1014.7 |
| 20260904113022 | 74 | 226 | 0.0 | 0.0 | 0.00 | 0.01 | 0.00 | 93 | 1014.6 |
| 20260904112506 | 74 | 226 | 0.0 | 0.0 | 0.00 | 0.01 | 0.00 | 93 | 1014.6 |
| 20260904112009 | 74 | 226 | 0.0 | 0.0 | 0.00 | 0.01 | 0.00 | 93 | 1014.6 |
| 20260904111513 | 74 | 226 | 0.0 | 0.0 | 0.00 | 0.01 | 0.00 | 93 | 1014.6 |
| 20260904111009 | 74 | 226 | 0.0 | 0.0 | 0.00 | 0.01 | 0.00 | 93 | 1014.7 |
| 20260904110509 | 74 | 226 | 0.0 | 0.0 | 0.00 | 0.01 | 0.00 | 93 | 1014.7 |
| 20260904110012 | 74 | 226 | 0.0 | 0.0 | 0.00 | 0.01 | 0.00 | 93 | 1014.7 |
| 20260904105510 | 74 | 226 | 0.0 | 0.0 | 0.00 | 0.02 | 0.00 | 93 | 1014.6 |
| 20260904105008 | 74 | 226 | 0.0 | 0.0 | 0.00 | 0.02 | 0.00 | 93 | 1014.6 |
| 20260904104516 | 74 | 226 | 0.0 | 0.0 | 0.00 | 0.02 | 0.00 | 93 | 1014.6 |
| 20260904104012 | 74 | 226 | 0.0 | 0.0 | 0.00 | 0.02 | 0.00 | 93 | 1014.6 |
| 20260904103511 | 74 | 226 | 0.0 | 0.0 | 0.00 | 0.02 | 0.00 | 93 | 1014.6 |
| 20260904103014 | 74 | 226 | 0.0 | 0.0 | 0.00 | 0.02 | 0.00 | 93 | 1014.5 |
| 20260904102505 | 74 | 226 | 0.0 | 0.0 | 0.00 | 0.02 | 0.00 | 93 | 1014.4 |
| 20260904102009 | 74 | 226 | 0.0 | 0.0 | 0.00 | 0.02 | 0.00 | 93 | 1014.4 |
| 20260904101511 | 74 | 226 | 0.0 | 0.0 | 0.00 | 0.02 | 0.00 | 92 | 1014.4 |
| 20260904101007 | 74 | 231 | 0.0 | 0.0 | 0.00 | 0.02 | 0.00 | 92 | 1014.4 |
| 20260904100509 | 74 | 231 | 0.0 | 0.0 | 0.00 | 0.02 | 0.00 | 92 | 1014.4 |
| 20260904100014 | 74 | 231 | 0.0 | 0.0 | 0.00 | 0.02 | 0.00 | 92 | 1014.4 |
| 20260904095510 | 74 | 231 | 0.0 | 0.0 | 0.00 | 0.02 | 0.00 | 92 | 1014.4 |
| 20260904095010 | 74 | 231 | 0.0 | 0.0 | 0.00 | 0.02 | 0.00 | 92 | 1014.4 |
| 20260904094531 | 74 | 231 | 0.0 | 0.0 | 0.00 | 0.02 | 0.00 | 92 | 1014.4 |
| 20260904094011 | 74 | 232 | 0.0 | 0.0 | 0.00 | 0.02 | 0.00 | 92 | 1014.4 |
| 20260904093511 | 74 | 231 | 0.0 | 0.0 | 0.00 | 0.02 | 0.00 | 92 | 1014.3 |
| 20260904093019 | 74 | 231 | 0.0 | 0.0 | 0.00 | 0.02 | 0.00 | 92 | 1014.3 |
| 20260904092512 | 74 | 230 | 0.0 | 0.0 | 0.00 | 0.02 | 0.00 | 92 | 1014.3 |
| 20260904092015 | 74 | 230 | 0.0 | 0.0 | 0.00 | 0.02 | 0.00 | 92 | 1014.4 |
| 20260904091532 | 74 | 230 | 0.0 | 0.0 | 0.00 | 0.02 | 0.00 | 92 | 1014.3 |
| 20260904091016 | 75 | 230 | 0.0 | 0.0 | 0.00 | 0.02 | 0.00 | 92 | 1014.4 |
| 20260904090506 | 75 | 231 | 0.0 | 0.0 | 0.00 | 0.02 | 0.00 | 92 | 1014.3 |
| 20260904090012 | 75 | 232 | 0.0 | 0.0 | 0.00 | 0.02 | 0.00 | 92 | 1014.4 |
| 20260904085515 | 75 | 232 | 0.0 | 0.0 | 0.00 | 0.02 | 0.00 | 92 | 1014.4 |
| 20260904085011 | 75 | 231 | 0.0 | 0.0 | 0.00 | 0.02 | 0.00 | 92 | 1014.3 |
| 20260904084520 | 75 | 231 | 0.0 | 0.0 | 0.00 | 0.02 | 0.00 | 92 | 1014.4 |
| 20260904084012 | 75 | 231 | 0.0 | 0.0 | 0.00 | 0.02 | 0.00 | 92 | 1014.4 |
| 20260904083513 | 75 | 231 | 0.0 | 0.0 | 0.00 | 0.02 | 0.00 | 92 | 1014.3 |
| 20260904083023 | 75 | 231 | 0.0 | 0.0 | 0.00 | 0.02 | 0.00 | 92 | 1014.3 |
| 20260904082512 | 75 | 0.0 | 0.0 | 0.00 | 0.02 | 0.00 | 92 | 1014.4 | |
| 20260904082013 | 75 | 0.0 | 0.0 | 0.00 | 0.02 | 0.00 | 92 | 1014.4 | |
| 20260904081519 | 75 | 230 | 0.0 | 0.0 | 0.00 | 0.02 | 0.00 | 92 | 1014.3 |
| 20260904081013 | 75 | 230 | 0.0 | 0.0 | 0.00 | 0.02 | 0.00 | 92 | 1014.3 |
| 20260904080516 | 75 | 230 | 0.0 | 0.0 | 0.00 | 0.02 | 0.00 | 92 | 1014.2 |
| 20260904080025 | 75 | 230 | 0.0 | 0.0 | 0.00 | 0.02 | 0.00 | 92 | 1014.3 |
| 20260904075517 | 75 | 230 | 0.0 | 0.0 | 0.00 | 0.02 | 0.00 | 92 | 1014.3 |
| 20260904075014 | 75 | 230 | 0.0 | 0.0 | 0.00 | 0.02 | 0.00 | 92 | 1014.3 |
| 20260904074523 | 75 | 230 | 0.0 | 0.0 | 0.00 | 0.02 | 0.00 | 92 | 1014.3 |
| 20260904074014 | 76 | 230 | 0.0 | 0.0 | 0.00 | 0.02 | 0.00 | 92 | 1014.2 |
| 20260904073514 | 76 | 230 | 0.0 | 0.0 | 0.00 | 0.02 | 0.00 | 92 | 1014.2 |
| 20260904073024 | 76 | 230 | 0.0 | 0.0 | 0.00 | 0.02 | 0.00 | 92 | 1014.2 |
| 20260904072515 | 76 | 231 | 0.0 | 0.0 | 0.00 | 0.02 | 0.00 | 92 | 1014.1 |
| 20260904072014 | 76 | 232 | 0.0 | 0.0 | 0.00 | 0.02 | 0.00 | 92 | 1014.2 |
| 20260904071526 | 76 | 237 | 0.0 | 0.0 | 0.00 | 0.02 | 0.00 | 92 | 1014.1 |
| 20260904071015 | 76 | 238 | 0.0 | 0.0 | 0.00 | 0.02 | 0.00 | 92 | 1014.2 |
| 20260904070517 | 76 | 236 | 0.0 | 0.0 | 0.00 | 0.02 | 0.00 | 92 | 1014.1 |
| 20260904070024 | 76 | 235 | 0.0 | 0.0 | 0.00 | 0.02 | 0.00 | 92 | 1014.2 |
| 20260904065518 | 76 | 235 | 0.0 | 0.0 | 0.00 | 0.02 | 0.00 | 92 | 1014.2 |
| 20260904065013 | 76 | 236 | 0.0 | 1.0 | 0.00 | 0.02 | 0.00 | 92 | 1014.2 |
| 20260904064533 | 76 | 235 | 0.0 | 1.0 | 0.00 | 0.02 | 0.00 | 92 | 1014.2 |
| 20260904064015 | 76 | 237 | 0.0 | 1.0 | 0.00 | 0.02 | 0.00 | 92 | 1014.2 |
| 20260904063508 | 76 | 236 | 0.0 | 1.0 | 0.00 | 0.02 | 0.00 | 92 | 1014.1 |
| 20260904063025 | 76 | 236 | 0.0 | 1.0 | 0.00 | 0.02 | 0.00 | 92 | 1014.0 |
| 20260904062515 | 76 | 236 | 0.0 | 1.0 | 0.00 | 0.02 | 0.00 | 92 | 1014.0 |
| 20260904062012 | 76 | 238 | 0.0 | 1.0 | 0.00 | 0.02 | 0.00 | 92 | 1014.1 |
| 20260904061535 | 76 | 235 | 0.0 | 0.0 | 0.00 | 0.02 | 0.00 | 92 | 1014.0 |
| 20260904061014 | 76 | 237 | 0.0 | 0.0 | 0.00 | 0.02 | 0.00 | 91 | 1014.0 |
| 20260904060514 | 76 | 237 | 0.0 | 0.0 | 0.00 | 0.02 | 0.00 | 91 | 1014.0 |
| 20260904060037 | 76 | 236 | 0.0 | 1.0 | 0.00 | 0.02 | 0.00 | 91 | 1014.0 |
| 20260904055515 | 77 | 237 | 0.0 | 1.0 | 0.00 | 0.02 | 0.00 | 91 | 1013.9 |
| 20260904055016 | 77 | 238 | 0.0 | 1.0 | 0.00 | 0.02 | 0.00 | 91 | 1013.8 |
| 20260904054541 | 77 | 238 | 0.0 | 1.0 | 0.00 | 0.02 | 0.00 | 91 | 1013.8 |
| 20260904054017 | 77 | 236 | 0.0 | 2.0 | 0.00 | 0.02 | 0.00 | 91 | 1013.7 |
| 20260904053515 | 77 | 246 | 0.0 | 2.0 | 0.00 | 0.02 | 0.00 | 91 | 1013.7 |
| 20260904053034 | 77 | 185 | 0.0 | 2.0 | 0.00 | 0.02 | 0.00 | 91 | 1013.7 |
| 20260904052519 | 77 | 69 | 0.0 | 2.0 | 0.00 | 0.02 | 0.00 | 91 | 1013.6 |
| 20260904052012 | 77 | 134 | 0.0 | 2.0 | 0.00 | 0.02 | 0.00 | 91 | 1013.6 |
| 20260904051503 | 77 | 207 | 0.0 | 2.0 | 0.00 | 0.02 | 0.00 | 91 | 1013.6 |
| 20260904051011 | 77 | 206 | 0.0 | 2.0 | 0.00 | 0.02 | 0.00 | 91 | 1013.6 |
| 20260904050502 | 77 | 251 | 0.0 | 0.0 | 0.00 | 0.02 | 0.00 | 91 | 1013.7 |
| 20260904050004 | 77 | 206 | 0.0 | 0.0 | 0.00 | 0.02 | 0.00 | 91 | 1013.6 |
| 20260904045516 | 77 | 266 | 0.0 | 0.0 | 0.00 | 0.02 | 0.02 | 91 | 1013.6 |
| 20260904045016 | 77 | 234 | 0.0 | 0.0 | 0.00 | 0.02 | 0.02 | 91 | 1013.7 |
| 20260904044509 | 77 | 262 | 0.0 | 0.0 | 0.00 | 0.02 | 0.02 | 91 | 1013.9 |
| 20260904044006 | 77 | 203 | 0.0 | 0.0 | 0.00 | 0.02 | 0.02 | 91 | 1013.9 |
| 20260904043509 | 77 | 231 | 0.0 | 0.0 | 0.00 | 0.02 | 0.02 | 91 | 1013.9 |
| 20260904043011 | 77 | 193 | 0.0 | 0.0 | 0.00 | 0.02 | 0.02 | 91 | 1013.9 |
| 20260904042510 | 77 | 195 | 0.0 | 0.0 | 0.00 | 0.02 | 0.02 | 91 | 1013.9 |
| 20260904042014 | 77 | 199 | 0.0 | 0.0 | 0.00 | 0.02 | 0.02 | 91 | 1013.9 |
| 20260904041504 | 77 | 184 | 0.0 | 0.0 | 0.00 | 0.02 | 0.02 | 91 | 1014.0 |
| 20260904041002 | 77 | 190 | 0.0 | 0.0 | 0.00 | 0.02 | 0.02 | 91 | 1014.0 |
| 20260904040502 | 77 | 189 | 0.0 | 0.0 | 0.00 | 0.02 | 0.02 | 91 | 1014.1 |
| 20260904040003 | 77 | 188 | 0.0 | 0.0 | 0.00 | 0.02 | 0.02 | 91 | 1014.2 |
| 20260904035514 | 78 | 188 | 0.0 | 0.0 | 0.00 | 0.02 | 0.02 | 91 | 1014.2 |
| 20260904035021 | 78 | 189 | 0.0 | 0.0 | 0.00 | 0.02 | 0.02 | 91 | 1014.2 |
| 20260904034506 | 78 | 190 | 0.0 | 0.0 | 0.00 | 0.02 | 0.02 | 91 | 1014.3 |
| 20260904034015 | 78 | 190 | 0.0 | 0.0 | 0.00 | 0.02 | 0.02 | 91 | 1014.3 |
| 20260904033516 | 78 | 190 | 0.0 | 0.0 | 0.00 | 0.02 | 0.02 | 91 | 1014.3 |
| 20260904033011 | 78 | 190 | 0.0 | 1.0 | 0.00 | 0.02 | 0.02 | 91 | 1014.2 |
| 20260904032518 | 78 | 190 | 0.0 | 1.0 | 0.00 | 0.02 | 0.02 | 91 | 1014.2 |
| 20260904032008 | 78 | 190 | 0.0 | 1.0 | 0.00 | 0.02 | 0.02 | 91 | 1014.2 |
| 20260904031520 | 78 | 190 | 0.0 | 2.0 | 0.00 | 0.02 | 0.02 | 91 | 1014.1 |
| 20260904031018 | 78 | 327 | 0.0 | 1.0 | 0.00 | 0.02 | 0.02 | 90 | 1014.1 |
| 20260904030513 | 78 | 173 | 0.0 | 1.0 | 0.00 | 0.02 | 0.02 | 90 | 1014.3 |
| 20260904030037 | 78 | 42 | 0.0 | 3.0 | 0.00 | 0.02 | 0.02 | 90 | 1014.3 |
| 20260904025502 | 78 | 38 | 0.0 | 2.0 | 0.00 | 0.02 | 0.02 | 90 | 1014.4 |
| 20260904025002 | 78 | 52 | 0.0 | 2.0 | 0.00 | 0.02 | 0.02 | 90 | 1014.4 |
| 20260904024505 | 78 | 360 | 0.0 | 1.0 | 0.00 | 0.02 | 0.02 | 90 | 1014.4 |
| 20260904024017 | 78 | 360 | 0.0 | 1.0 | 0.00 | 0.02 | 0.02 | 90 | 1014.3 |
| 20260904023518 | 78 | 360 | 0.0 | 1.0 | 0.00 | 0.02 | 0.02 | 90 | 1014.4 |
| 20260904023039 | 78 | 360 | 0.0 | 0.0 | 0.00 | 0.02 | 0.02 | 90 | 1014.2 |
| 20260904022513 | 78 | 360 | 0.0 | 0.0 | 0.00 | 0.02 | 0.02 | 90 | 1014.2 |
| 20260904022008 | 78 | 241 | 0.0 | 1.0 | 0.00 | 0.02 | 0.02 | 90 | 1014.1 |
| 20260904021525 | 78 | 242 | 0.0 | 1.0 | 0.00 | 0.02 | 0.02 | 90 | 1014.1 |
| 20260904021016 | 78 | 360 | 0.0 | 0.0 | 0.00 | 0.02 | 0.02 | 90 | 1014.0 |
| 20260904020512 | 78 | 360 | 0.0 | 0.0 | 0.00 | 0.02 | 0.02 | 90 | 1013.9 |
| 20260904020018 | 78 | 360 | 0.0 | 0.0 | 0.00 | 0.02 | 0.02 | 90 | 1013.9 |
| 20260904015513 | 78 | 360 | 0.0 | 0.0 | 0.00 | 0.02 | 0.02 | 89 | 1013.9 |
| 20260904015019 | 78 | 360 | 0.0 | 0.0 | 0.00 | 0.02 | 0.02 | 89 | 1013.7 |
| 20260904014526 | 78 | 360 | 0.0 | 1.0 | 0.00 | 0.03 | 0.02 | 89 | 1013.6 |
| 20260904014014 | 79 | 360 | 0.0 | 1.0 | 0.00 | 0.03 | 0.02 | 89 | 1013.5 |
| 20260904013503 | 79 | 360 | 0.0 | 0.0 | 0.00 | 0.03 | 0.02 | 89 | 1013.4 |
| 20260904013040 | 79 | 259 | 0.0 | 0.0 | 0.00 | 0.03 | 0.02 | 88 | 1013.2 |
| 20260904012507 | 79 | 259 | 0.0 | 0.0 | 0.00 | 0.03 | 0.02 | 88 | 1013.2 |
| 20260904012006 | 79 | 232 | 0.0 | 0.0 | 0.00 | 0.03 | 0.02 | 88 | 1013.2 |
| 20260904011532 | 79 | 230 | 0.0 | 0.0 | 0.00 | 0.03 | 0.02 | 88 | 1013.2 |
| 20260904011006 | 79 | 230 | 0.0 | 0.0 | 0.00 | 0.03 | 0.02 | 88 | 1013.1 |
| 20260904010510 | 80 | 231 | 0.0 | 1.0 | 0.00 | 0.03 | 0.02 | 88 | 1013.2 |
| 20260904010016 | 80 | 231 | 0.0 | 1.0 | 0.00 | 0.03 | 0.02 | 88 | 1013.3 |
| 20260904005517 | 80 | 231 | 0.0 | 1.0 | 0.00 | 0.03 | 0.02 | 87 | 1013.2 |
| 20260904005016 | 80 | 231 | 0.0 | 1.0 | 0.00 | 0.03 | 0.02 | 87 | 1013.0 |
| 20260904004525 | 80 | 231 | 0.0 | 0.0 | 0.00 | 0.04 | 0.02 | 87 | 1013.1 |
| 20260904004019 | 81 | 229 | 0.0 | 0.0 | 0.00 | 0.04 | 0.02 | 87 | 1013.1 |
| 20260904003518 | 81 | 229 | 0.0 | 0.0 | 0.00 | 0.04 | 0.02 | 87 | 1013.2 |
| 20260904003032 | 81 | 229 | 0.0 | 0.0 | 0.00 | 0.04 | 0.02 | 87 | 1013.2 |
| 20260904002519 | 81 | 229 | 0.0 | 0.0 | 0.00 | 0.04 | 0.02 | 87 | 1013.2 |
| 20260904002017 | 81 | 223 | 0.0 | 0.0 | 0.00 | 0.04 | 0.02 | 87 | 1013.2 |
| 20260904001551 | 81 | 230 | 0.0 | 0.0 | 0.00 | 0.04 | 0.02 | 87 | 1013.2 |
| 20260904001018 | 81 | 234 | 0.0 | 0.0 | 0.00 | 0.04 | 0.02 | 88 | 1013.3 |
| 20260904000520 | 81 | 0.0 | 0.0 | 0.00 | 0.04 | 0.02 | 88 | 1013.4 | |
| 20260904000033 | 81 | 190 | 0.0 | 0.0 | 0.00 | 0.04 | 0.02 | 1013.4 | |
| 20260903235520 | 0 | 0.0 | 0.0 | 0.00 | 0.04 | 0.02 | 1013.4 | ||
| 20260903235019 | 0 | 0.0 | 0.0 | 0.00 | 0.04 | 0.02 | 1013.4 | ||
| 20260903234532 | 0 | 0.0 | 0.0 | 0.00 | 0.04 | 0.02 | 1013.4 | ||
| 20260903234019 | 0 | 0.0 | 0.0 | 0.00 | 0.04 | 0.02 | 1013.4 | ||
| 20260903233521 | 0 | 0.0 | 0.0 | 0.00 | 0.04 | 0.02 | 1013.5 | ||
| 20260903233041 | 0 | 0.0 | 0.0 | 0.00 | 0.04 | 0.02 | 1013.5 | ||
| 20260903232519 | 0 | 0.0 | 0.0 | 0.00 | 0.04 | 0.02 | 1013.5 | ||
| 20260903232016 | 0 | 0.0 | 0.0 | 0.00 | 0.04 | 0.02 | 1013.4 | ||
| 20260903231535 | 0 | 0.0 | 0.0 | 0.00 | 0.04 | 0.02 | 1013.3 | ||
| 20260903231016 | 0 | 0.0 | 0.0 | 0.00 | 0.04 | 0.02 | 1013.3 | ||
| 20260903230523 | 0 | 0.0 | 0.0 | 0.00 | 0.04 | 0.02 | 1013.3 | ||
| 20260903230036 | 0 | 0.0 | 0.0 | 0.00 | 0.04 | 0.02 | 1013.3 | ||
| 20260903225524 | 0 | 0.0 | 0.0 | 0.00 | 0.04 | 0.02 | 1013.2 | ||
| 20260903225020 | 0 | 0.0 | 0.0 | 0.00 | 0.04 | 0.02 | 1013.3 | ||
| 20260903224537 | 0 | 0.0 | 0.0 | 0.00 | 0.04 | 0.02 | 1013.5 | ||
| 20260903224020 | 0 | 0.0 | 0.0 | 0.00 | 0.04 | 0.02 | 1013.4 | ||
| 20260903223518 | 0 | 0.0 | 0.0 | 0.00 | 0.04 | 0.02 | 1013.4 | ||
| 20260903223038 | 0 | 0.0 | 0.0 | 0.00 | 0.04 | 0.02 | 1013.5 | ||
| 20260903222518 | 0 | 0.0 | 0.0 | 0.00 | 0.04 | 0.02 | 1013.4 | ||
| 20260903222020 | 0 | 0.0 | 0.0 | 0.00 | 0.04 | 0.02 | 1013.4 | ||
| 20260903221537 | 0 | 0.0 | 0.0 | 0.00 | 0.11 | 0.02 | 1013.5 | ||
| 20260903221018 | 0 | 0.0 | 0.0 | 0.00 | 0.15 | 0.02 | 1013.6 | ||
| 20260903220518 | 0 | 0.0 | 0.0 | 0.00 | 0.17 | 0.02 | 1013.6 | ||
| 20260903220035 | 0 | 0.0 | 0.0 | 0.00 | 0.19 | 0.02 | 1013.7 | ||
| 20260903215518 | 0 | 0.0 | 0.0 | 0.00 | 0.22 | 0.02 | 1013.9 | ||
| 20260903215019 | 0 | 0.0 | 0.0 | 0.00 | 0.31 | 0.02 | 1013.9 | ||
| 20260903214534 | 0 | 0.0 | 0.0 | 0.00 | 0.38 | 0.02 | 1014.1 | ||
| 20260903214021 | 0 | 0.0 | 0.0 | 0.00 | 0.46 | 0.02 | 1014.1 | ||
| 20260903213520 | 0 | 0.0 | 0.0 | 0.00 | 0.51 | 0.02 | 1014.2 | ||
| 20260903213046 | 0 | 0.0 | 0.0 | 0.00 | 0.52 | 0.02 | 1014.2 | ||
| 20260903212518 | 0 | 0.0 | 0.0 | 0.00 | 0.52 | 0.02 | 1014.3 | ||
| 20260903212017 | 0 | 0.0 | 0.0 | 0.00 | 0.52 | 0.02 | 1014.2 | ||
| 20260903211536 | 0 | 0.0 | 0.0 | 0.00 | 0.52 | 0.02 | 1014.3 | ||
| 20260903211018 | 0 | 0.0 | 0.0 | 0.00 | 0.52 | 0.02 | 1014.4 | ||
| 20260903210518 | 0 | 0.0 | 0.0 | 0.00 | 0.52 | 0.02 | 1014.4 | ||
| 20260903210034 | 0 | 0.0 | 0.0 | 0.00 | 0.52 | 0.02 | 1014.4 | ||
| 20260903205523 | 0 | 0.0 | 0.0 | 0.00 | 0.52 | 0.02 | 1014.4 | ||
| 20260903205022 | 0 | 0.0 | 0.0 | 0.00 | 0.52 | 0.02 | 1014.6 | ||
| 20260903204540 | 0 | 0.0 | 0.0 | 0.00 | 0.52 | 0.02 | 1014.6 | ||
| 20260903204018 | 0 | 0.0 | 0.0 | 0.00 | 0.52 | 0.02 | 1014.5 | ||
| 20260903203516 | 0 | 0.0 | 0.0 | 0.00 | 0.52 | 0.02 | 1014.6 | ||
| 20260903203034 | 86 | 0.0 | 0.0 | 0.00 | 0.52 | 0.02 | 80 | 1014.7 | |
| 20260903202516 | 86 | 174 | 0.0 | 2.0 | 0.00 | 0.52 | 0.02 | 80 | 1014.7 |
| 20260903202011 | 86 | 174 | 0.0 | 4.0 | 0.00 | 0.52 | 0.02 | 81 | 1014.6 |
| 20260903201536 | 86 | 145 | 1.0 | 3.0 | 0.00 | 0.52 | 0.02 | 78 | 1014.4 |
| 20260903201021 | 86 | 360 | 0.0 | 3.0 | 0.00 | 0.52 | 0.02 | 80 | 1014.5 |
| 20260903200514 | 86 | 186 | 0.0 | 3.0 | 0.00 | 0.52 | 0.02 | 79 | 1014.4 |
| 20260903200003 | 86 | 87 | 0.0 | 2.0 | 0.00 | 0.52 | 0.02 | 83 | 1014.6 |
| 20260903195518 | 84 | 185 | 0.0 | 2.0 | 0.00 | 0.52 | 0.02 | 82 | 1014.7 |
| 20260903195002 | 85 | 61 | 0.0 | 3.0 | 0.00 | 0.52 | 0.02 | 82 | 1014.6 |
| 20260903194510 | 85 | 45 | 0.0 | 3.0 | 0.00 | 0.52 | 0.02 | 85 | 1014.7 |
| 20260903194023 | 84 | 43 | 0.0 | 5.0 | 0.00 | 0.52 | 0.02 | 84 | 1015.0 |
| 20260903193516 | 84 | 221 | 1.0 | 5.0 | 0.00 | 0.52 | 0.02 | 85 | 1015.2 |
| 20260903193016 | 84 | 236 | 1.0 | 3.0 | 0.00 | 0.52 | 0.02 | 87 | 1015.3 |
| 20260903192509 | 84 | 221 | 0.0 | 3.0 | 0.00 | 0.52 | 0.02 | 88 | 1015.3 |
| 20260903192004 | 83 | 213 | 0.0 | 3.0 | 0.00 | 0.52 | 0.02 | 87 | 1015.3 |
| 20260903191503 | 83 | 263 | 1.0 | 3.0 | 0.00 | 0.52 | 0.02 | 89 | 1015.4 |
| 20260903191005 | 82 | 244 | 0.0 | 2.0 | 0.00 | 0.52 | 0.02 | 91 | 1015.5 |
| 20260903190520 | 82 | 62 | 0.0 | 2.0 | 0.00 | 0.52 | 0.02 | 90 | 1015.7 |
| 20260903190003 | 82 | 62 | 1.0 | 2.0 | 0.00 | 0.52 | 0.02 | 91 | 1015.7 |
| 20260903185502 | 82 | 314 | 0.0 | 3.0 | 0.01 | 0.52 | 0.02 | 90 | 1015.8 |
| 20260903185018 | 82 | 166 | 0.0 | 3.0 | 0.01 | 0.52 | 0.02 | 89 | 1015.8 |
| 20260903184507 | 82 | 166 | 0.0 | 3.0 | 0.01 | 0.52 | 0.02 | 90 | 1015.7 |
| 20260903184016 | 82 | 163 | 0.0 | 2.0 | 0.01 | 0.52 | 0.02 | 91 | 1015.6 |
| 20260903183516 | 81 | 78 | 0.0 | 2.0 | 0.01 | 0.52 | 0.02 | 91 | 1015.4 |
| 20260903183036 | 80 | 194 | 0.0 | 4.0 | 0.01 | 0.52 | 0.02 | 91 | 1015.3 |
| 20260903182518 | 80 | 207 | 0.0 | 4.0 | 0.01 | 0.52 | 0.02 | 92 | 1015.3 |